Location: Newark
(34.9500°N, 139.9667°E)
Time: 18:15:44
(UTC+00:00)

Vanguard 1 Rocket - Pass Details

Date: 08 December 2019
Orbit: 650 x 4226 km, 34.3° (Epoch: 23 January)

Event Time Altitude Azimuth Distance (km) Brightness Sun altitude
Rises 17:04:37 0° 281° (WNW) 4,504 - -54.7°
Reaches altitude 10° 17:08:22 10° 276° (W) 3,056 - -53.9°
Maximum altitude 17:14:44 45° 205° (SSW) 1,080 - -52.6°
Drops below altitude 10° 17:19:06 10° 132° (SE) 2,099 - -51.7°
Sets 17:21:14 0° 125° (SE) 2,953 - -51.3°
